Regional Weather Roundup
Issued by NWS

Home | Current Version | Previous Version | Graphics & Text | Print | Product List | Glossary On
Versions: 1 2 3 4 5 6 7 8 9 10 11 12 13 14 15 16 17 18 19 20 21 22 23 24 25 26 27 28 29 30 31 32 33 34 35 36 37 38 39 40 41 42 43 44 45 46 47 48 49 50
000
ASUS44 KMEG 030000
RWRTN
TENNESSEE HOURLY STATE WEATHER ROUNDUP
NATIONAL WEATHER SERVICE MEMPHIS TN
600 PM CST FRI DEC 02 2016

TNZ002-004-019-021-049-052-054-088>092-030100-
WEST TENNESSEE

CITY           SKY/WX    TMP DP  RH WIND       PRES   REMARKS
MEMPHIS INTL   MOCLDY    55  33  43 CALM      30.27R
NWS MEMPHIS      N/A     51 N/A N/A MISG        N/A
JACKSON        PTCLDY    48  37  65 CALM      30.28R
DYERSBURG      PTCLDY   N/A N/A N/A E6        30.27R
PARIS          CLEAR     41  30  65 CALM      30.29S
$$

TNZ008-025-027-028-033-062-065-066-030100-
NORTH MIDDLE TENNESSEE

CITY           SKY/WX    TMP DP  RH WIND       PRES   REMARKS
NASHVILLE      PTCLDY    50  27  40 N6        30.29R
CLARKSVILLE    PTCLDY    47  28  47 NW3       30.29R
SMYRNA         CLEAR     43  33  68 NW3       30.29R
CROSSVILLE     CLEAR     45  26  47 W5        30.26R
$$

TNZ061-075-076-078-094-096-097-030100-
SOUTH MIDDLE TENNESSEE

CITY           SKY/WX    TMP DP  RH WIND       PRES   REMARKS
TULLAHOMA      CLEAR     43  27  52 CALM      30.27S
WINCHESTER     CLEAR     39  30  70 CALM      30.27R
SHELBYVILLE    CLEAR     45  36  70 CALM      30.29R
$$

TNZ017-018-042-046-047-030100-
NORTHEAST TENNESSEE

CITY           SKY/WX    TMP DP  RH WIND       PRES   REMARKS
TRI CITIES     PTCLDY    40  28  62 CALM      30.20R
$$

TNZ012-013-036-069-073-074-030100-
CENTRAL EAST TENNESSEE

CITY           SKY/WX    TMP DP  RH WIND       PRES   REMARKS
KNOXVILLE      PTCLDY    45  32  60 SW6       30.23R
OAK RIDGE      CLEAR     47  30  51 CALM      30.25S
GATLINBURG     CLEAR     41  28  60 CALM      30.23S
$$

TNZ083-085-099-030100-
SOUTHEAST TENNESSEE

CITY           SKY/WX    TMP DP  RH WIND       PRES   REMARKS
CHATTANOOGA    PTCLDY    50  30  46 CALM      30.26R
$$

SKY/WX REPORTED AS FAIR MEANS FEW OR NO CLOUDS BELOW
12 THOUSAND FEET.




USA.gov is the U.S. government's official web portal to all federal, state and local government web resources and services.